0 HST 1 20580U 90037B 26144.93150809 .00005711 00000-0 18067-3 0 9995 2 20580 28.4734 239.4838 0001255 242.4756 117.5713 15.30477719785004 0 ISS (ZARYA) 1 25544U 98067A 26145.16420519 .00009873 00000-0 18471-3 0 9997 2 25544 51.6330 54.0759 0007478 95.4333 264.7509 15.49361343568183 0 CXO 1 25867U 99040B 26145.57568504 .00000437 00000-0 00000-0 0 9992 2 25867 55.8479 117.2365 7871499 310.4614 0.0224 0.37808626 17238